Voltar ao catálogo

ATLAS 5 CENTAUR DEB

LostHEO
NORAD 44692·DEBRIS·🇺🇸 United States

Lançado Oct 17, 2018 de Cape Canaveral Space Force Station

Loading…

Próximas Passagens (próximas 24 horas)

TLE

ObsoletoSource: Space-Track

Época: Sep 17, 2025, 09:53 UTC

1 44692U 18079BE  25260.41199243 -.00000088  00000-0  00000-0 0  9995
2 44692  11.9937  95.9237 4642562 202.5658 127.7785  1.71601976 38689

Acompanhe ATLAS 5 CENTAUR DEB em tempo real com AllMySat

Download on the App Store